Weather History for Covington, KY

Change the Weather History Date:

Sunday, December 16, 2012

  Actual Average Record
Temperature  
Mean Temperature 55 °F 34 °F  
Max Temperature 61 °F 41 °F 67 °F (1984)
Min Temperature 48 °F 26 °F -7 °F (1989)
Degree Days  
Heating Degree Days 10 31  
Month to date heating degree days 296 465  
Since 1 July heating degree days 1402 1425  
Cooling Degree Days 0 0  
Month to date cooling degree days 0 0  
Year to date cooling degree days 1439 1121  
Growing Degree Days 4 (Base 50)    
Moisture  
Dew Point 49 °F    
Average Humidity 78    
Maximum Humidity 93    
Minimum Humidity 62    
Precipitation  
Precipitation 0.01 in 0.10 in 1.50 in (2000)
Month to date precipitation 3.36 1.75  
Year to date precipitation 36.39 40.90  
Snow  
Snow 0.00 in 0.20 in 4.10 in (2010)
Month to date snowfall T 2.0  
Since 1 July snowfall T 2.8  
Snow Depth 0.00 in    
Sea Level Pressure  
Sea Level Pressure 29.74 in    
Wind  
Wind Speed 7 mph (SSW)    
Max Wind Speed 14 mph    
Max Gust Speed 20 mph    
Visibility 10 miles    
Events Rain    
T = Trace of Precipitation, MM = Missing Value Source: NWS Daily Summary

Daily Weather History Graph

Daily Weather History Graph

Search for Another Location

Airport:

Trip Planner

Search our weather history database for the weather conditions in past years. The results will help you decide how hot, cold, wet, or windy it might be!

Date:

Astronomy

Dec. 16, 2012 Rise Set
Actual Time 7:51 AM EST 5:17 PM EST
Civil Twilight 7:21 AM EST 5:47 PM EST
Nautical Twilight 6:47 AM EST 6:21 PM EST
Astronomical Twilight 6:15 AM EST 6:53 PM EST
Moon 10:25 AM EST (12/16) 9:29 PM EST (12/16)
Length of Visible Light 10h 26m
Length of Day
9h 26m
Waxing Crescent, 16% of the Moon is Illuminated
Dec 16
Waxing Crescent
Dec 20
First Quarter
Dec 28
Full
Jan 4
Last Quarter
Jan 11
New

Hourly Weather History & Observations

Time (EST) Temp. Dew Point Humidity Pressure Visibility Wind Dir Wind Speed Gust Speed Precip Events Conditions
12:35 AM 53.6 °F 44.6 °F 72% 29.80 in 10.0 mi South 8.1 mph - N/A   Overcast
12:52 AM 54.0 °F 45.0 °F 72% 29.79 in 10.0 mi SSW 8.1 mph - N/A   Overcast
1:11 AM 53.6 °F 44.6 °F 72% 29.79 in 10.0 mi South 9.2 mph - N/A   Overcast
1:47 AM 51.8 °F 46.4 °F 82% 29.78 in 10.0 mi South 6.9 mph - N/A   Mostly Cloudy
1:52 AM 52.0 °F 46.0 °F 80% 29.77 in 10.0 mi South 6.9 mph - N/A   Mostly Cloudy
2:40 AM 50.0 °F 46.4 °F 87% 29.77 in 10.0 mi SSE 9.2 mph - N/A   Mostly Cloudy
2:48 AM 51.8 °F 46.4 °F 82% 29.77 in 10.0 mi SSE 9.2 mph - N/A   Mostly Cloudy
2:52 AM 51.8 °F 46.4 °F 82% 29.77 in 10.0 mi SSE 9.2 mph - N/A   Mostly Cloudy
3:26 AM 50.0 °F 46.4 °F 87% 29.76 in 10.0 mi SSE 9.2 mph - N/A   Mostly Cloudy
3:36 AM 51.8 °F 46.4 °F 82% 29.76 in 10.0 mi SSE 9.2 mph - N/A   Mostly Cloudy
3:52 AM 51.1 °F 48.0 °F 89% 29.76 in 10.0 mi SSE 8.1 mph - N/A   Overcast
4:52 AM 55.0 °F 51.1 °F 86% 29.74 in 10.0 mi South 9.2 mph - N/A   Overcast
5:52 AM 57.2 °F 51.8 °F 82% 29.75 in 10.0 mi SSW 9.2 mph 19.6 mph N/A   Overcast
6:24 AM 55.4 °F 53.6 °F 94% 29.75 in 10.0 mi SSW 9.2 mph - 0.01 in Rain Light Rain
6:52 AM 55.9 °F 53.1 °F 90% 29.74 in 10.0 mi SSW 8.1 mph - 0.01 in   Overcast
7:52 AM 55.0 °F 53.1 °F 93% 29.75 in 9.0 mi South 8.1 mph - 0.00 in   Overcast
8:52 AM 55.9 °F 53.1 °F 90% 29.75 in 9.0 mi South 9.2 mph - N/A   Overcast
9:52 AM 57.0 °F 54.0 °F 89% 29.75 in 9.0 mi SSW 6.9 mph - N/A   Mostly Cloudy
10:52 AM 59.0 °F 53.1 °F 81% 29.75 in 10.0 mi SW 10.4 mph 17.3 mph N/A   Scattered Clouds
11:52 AM 60.1 °F 53.1 °F 78% 29.73 in 10.0 mi SSW 9.2 mph - N/A   Mostly Cloudy
12:52 PM 60.1 °F 53.1 °F 78% 29.70 in 10.0 mi SSW 12.7 mph - N/A   Mostly Cloudy
1:52 PM 60.1 °F 52.0 °F 75% 29.67 in 10.0 mi WSW 6.9 mph - N/A   Overcast
2:52 PM 60.1 °F 52.0 °F 75% 29.66 in 10.0 mi SW 5.8 mph - N/A   Overcast
3:52 PM 59.0 °F 52.0 °F 78% 29.67 in 10.0 mi SW 4.6 mph - N/A   Overcast
4:52 PM 57.9 °F 48.9 °F 72% 29.68 in 10.0 mi SW 5.8 mph - N/A   Overcast
5:52 PM 57.9 °F 46.0 °F 65% 29.68 in 10.0 mi SW 13.8 mph 19.6 mph N/A   Overcast
6:52 PM 57.0 °F 45.0 °F 64% 29.69 in 10.0 mi WSW 6.9 mph - N/A   Overcast
7:52 PM 55.0 °F 45.0 °F 69% 29.70 in 10.0 mi SSW 4.6 mph - N/A   Overcast
8:52 PM 54.0 °F 45.0 °F 72% 29.70 in 10.0 mi SW 3.5 mph - N/A   Overcast
9:52 PM 52.0 °F 46.0 °F 80% 29.72 in 10.0 mi Calm Calm - N/A   Scattered Clouds
10:52 PM 51.1 °F 46.0 °F 83% 29.73 in 10.0 mi Calm Calm - N/A   Mostly Cloudy
11:36 PM 48.2 °F 44.6 °F 87% 29.74 in 10.0 mi Calm Calm - N/A   Mostly Cloudy
11:52 PM 48.9 °F 45.0 °F 86% 29.73 in 10.0 mi Calm Calm - 0.00 in   Overcast